STARLINK-3125 (49451 NORAD) Tracking and Keplerian Element Data

This shows tracking and keplerian element data for the satellite.

Feedback or suggestion? Click here.




ElementValue
Catalog49451
NameSTARLINK-3125
Epoch Orbit486
Epoch Day340.25001157
Epoch Year2021
RAAN20.561
Inclination53.219
Eccentricity0.0002164
Argument of Perigee31.3322
Mean Anonmoly140.7283
Mean Motion15.73255924
Decay Rate-0.00101903
L11 49451U 21104AV 21340.25001157 -.00101903 00000+0 -72861-3 0 9994
L22 49451 53.2190 20.5610 0002164 31.3322 140.7283 15.73255924 4862

Live tracking and technical data element details for STARLINK-3125 (NORAD 49451). STARLINK-3125 can be tracked NOW for your location showing map with azimuth and elevation plus other details from your city location.

Track the satellite on the map from your city or location and see movement details for azimuth, elevation, latitude, longitude, range, height, and movement on the map or in text.







IsCatalogInMostPopularTable: catalog: 49451, numindb: 1
Update: records affected: 1



GetName: 49451 STARLINK-3125

Hit Count: updated at: Wed, 08 Dec 2021 16:23:32 GMT